Regional Weather Roundup
Issued by NWS

Home | Current Version | Previous Version | Graphics & Text | Print | Product List | Glossary On
Versions: 1 2 3 4 5 6 7 8 9 10 11 12 13 14 15 16 17 18 19 20 21 22 23 24 25 26 27 28 29 30 31 32 33 34 35 36 37 38 39 40 41 42 43 44 45 46 47 48 49 50
000
ASUS43 KTOP 241559
RWRKS

WEATHER ROUNDUP FOR KANSAS
NATIONAL WEATHER SERVICE GOODLAND KS
1100 AM CDT TUE APR 24 2018

NOTE:  "FAIR" INDICATES FEW OR NO CLOUDS BELOW 12,000 FEET WITH NO
SIGNIFICANT WEATHER AND/OR OBSTRUCTIONS TO VISIBILITY.

KSZ001>006-013>018-027>032-041>047-241700-
NORTHWEST KANSAS

CITY           SKY/WX    TMP DP  RH WIND       PRES   REMARKS
GOODLAND       RAIN      34  34 100 NW16      30.35R FOG     WCI  23
HAYS           CLOUDY    52  46  80 NW23      30.23R
HILL CITY      LGT RAIN  45  43  93 N24G36    30.28R FOG
RUSSELL        CLOUDY    58  50  75 NW17      30.19R
$$

KSZ061>065-074>080-084>089-241700-
SOUTHWEST KANSAS

CITY           SKY/WX    TMP DP  RH WIND       PRES   REMARKS
DODGE CITY     CLOUDY    52  46  80 N17G32    30.24R
GARDEN CITY    CLOUDY    44  41  89 N22G33    30.27R
GREAT BEND     CLOUDY    58  51  78 NW14      30.20S
LIBERAL        CLOUDY    59  48  67 NW5       30.23R
$$

KSZ066>073-081>083-090>101-241700-
SOUTHEAST KANSAS

CITY           SKY/WX    TMP DP  RH WIND       PRES   REMARKS
CHANUTE        SUNNY     72  38  29 MISG      30.13F
COFFEYVILLE    SUNNY     71  42  35 VRB6      30.12F
HUTCHINSON     CLOUDY    71  43  36 W8        30.16R
MEDICINE LODGE   N/A     70  45  40 CALM      30.16F
NEWTON         SUNNY     70  40  33 NW5       30.17R
PARSONS        SUNNY     71  39  31 N6        30.13F
WICHITA INTL   MOSUNNY   71  42  35 NW6       30.15R
WICHITA JABRA  SUNNY     72  38  29 W7        30.15R
WINFIELD       SUNNY     70  49  47 NW5       30.15S
$$

KSZ007>012-019>026-033>040-048>060-102>105-241700-
NORTHEAST KANSAS

CITY           SKY/WX    TMP DP  RH WIND       PRES   REMARKS
CONCORDIA      CLOUDY    61  41  47 W13       30.16S
EMPORIA        SUNNY     68  39  34 CALM      30.14S
LAWRENCE       SUNNY     69  37  30 SW3       30.13F
MANHATTAN      CLOUDY    67  42  40 CALM      30.14S
OLATHE IND     SUNNY     70  37  29 N8        30.14S
OLATHE EXE     SUNNY     68  34  28 VRB6      30.13S
SALINA         MOSUNNY   68  45  43 W8        30.17R
TOPEKA BILLARD MOSUNNY   69  37  30 VRB3      30.13F
TOPEKA FORBES  SUNNY     71  32  23 VRB3      30.14S
$$



USA.gov is the U.S. government's official web portal to all federal, state and local government web resources and services.